Location: Altleiningen
(49.5078°N, 8.0741°E)
Time: 20:11:13
(UTC+00:00)

Okean 3 - Pass Details

Date: 14 June 2025
Orbit: 547 x 569 km, 82.5° (Epoch: 16 July)

Event Time Altitude Azimuth Distance (km) Brightness Sun altitude
Exits shadow 21:51:15 24° 166° (SSE) 1,199 4.4 -14.1°
Maximum altitude 21:53:32 57° 96° (E) 671 3.6 -14.2°
Drops below altitude 10° 21:57:34 10° 17° (NNE) 1,863 6.8 -14.4°
Sets 21:59:46 0° 14° (NNE) 2,760 7.9 -14.6°
